• In Hungary
  • List of Countries
  • For 7 days
  • Water Temperature
  • Satellite Maps
  • Weather Map
  • News
  • Weather Widgets
  • user-avatar
    Login

    Hourly Weather Bzowo

    Today, 19 July, Thursday

    Time Temperature Precipitation Wind Pressure Humidity
    00:00 +19°C° 0.3 mm 3 mps 752 mmHg 96%
    01:00 +19°C° 0.3 mm 3 mps 752 mmHg 96%
    02:00 +19°C° 0.5 mm 3 mps 752 mmHg 97%
    03:00 +19°C° 0.5 mm 3 mps 752 mmHg 97%
    04:00 +19°C° 0.5 mm 3 mps 752 mmHg 97%
    05:00 +19°C° 0.6 mm 3 mps 752 mmHg 96%
    06:00 +19°C° 0.6 mm 3 mps 752 mmHg 96%
    07:00 +19°C° 0.6 mm 3 mps 753 mmHg 96%
    08:00 +19°C° 0.7 mm 3 mps 753 mmHg 95%
    09:00 +19°C° 0.7 mm 3 mps 753 mmHg 94%
    10:00 +20°C° 0.7 mm 4 mps 753 mmHg 93%
    11:00 +21°C° 0.2 mm 4 mps 753 mmHg 87%
    12:00 +22°C° 0.2 mm 4 mps 753 mmHg 81%
    13:00 +23°C° 0.2 mm 5 mps 754 mmHg 75%
    14:00 +25°C° 0.2 mm 5 mps 753 mmHg 73%
    15:00 +25°C° 0.2 mm 5 mps 753 mmHg 71%
    16:00 +25°C° 0.2 mm 5 mps 753 mmHg 69%
    17:00 +23°C° 0 mm 4 mps 753 mmHg 72%
    18:00 +23°C° 0 mm 4 mps 753 mmHg 76%
    19:00 +22°C° 0 mm 4 mps 754 mmHg 79%
    20:00 +21°C° 0 mm 4 mps 754 mmHg 81%
    21:00 +19°C° 0 mm 4 mps 754 mmHg 83%
    22:00 +18°C° 0 mm 3 mps 754 mmHg 85%
    23:00 +17°C° 0 mm 3 mps 754 mmHg 84%

    Tomorrow, 20 July, Friday

    Time Temperature Precipitation Wind Pressure Humidity
    00:00 +17°C° 0 mm 3 mps 754 mmHg 83%
    01:00 +16°C° 0 mm 3 mps 754 mmHg 82%
    02:00 +16°C° 0 mm 3 mps 754 mmHg 83%
    03:00 +16°C° 0 mm 3 mps 754 mmHg 84%
    04:00 +14°C° 0 mm 3 mps 754 mmHg 85%
    05:00 +16°C° 0 mm 3 mps 754 mmHg 81%
    06:00 +18°C° 0 mm 3 mps 754 mmHg 77%
    07:00 +19°C° 0 mm 4 mps 754 mmHg 73%
    08:00 +20°C° 0 mm 4 mps 754 mmHg 68%
    09:00 +22°C° 0 mm 4 mps 754 mmHg 63%
    10:00 +23°C° 0 mm 4 mps 754 mmHg 57%
    11:00 +25°C° 0 mm 4 mps 754 mmHg 55%
    12:00 +25°C° 0 mm 4 mps 754 mmHg 53%
    13:00 +26°C° 0 mm 4 mps 754 mmHg 52%
    14:00 +26°C° 0 mm 4 mps 754 mmHg 52%
    15:00 +26°C° 0 mm 4 mps 753 mmHg 52%
    16:00 +26°C° 0 mm 4 mps 753 mmHg 52%
    17:00 +25°C° 0 mm 3 mps 753 mmHg 57%
    18:00 +24°C° 0 mm 3 mps 753 mmHg 62%
    19:00 +21°C° 0 mm 2 mps 753 mmHg 67%
    20:00 +20°C° 0 mm 2 mps 753 mmHg 70%
    21:00 +18°C° 0 mm 2 mps 753 mmHg 74%
    22:00 +16°C° 0 mm 2 mps 753 mmHg 78%
    23:00 +16°C° 0 mm 2 mps 753 mmHg 79%

    Day after tomorrow, 21 July, Saturday

    Time Temperature Precipitation Wind Pressure Humidity
    00:00 +15°C° 0 mm 1 mps 753 mmHg 79%
    01:00 +15°C° 0 mm 1 mps 753 mmHg 80%
    02:00 +14°C° 0 mm 1 mps 753 mmHg 81%
    03:00 +14°C° 0 mm 1 mps 753 mmHg 83%
    04:00 +14°C° 0 mm 1 mps 753 mmHg 84%
    05:00 +15°C° 0 mm 1 mps 753 mmHg 80%
    06:00 +18°C° 0 mm 1 mps 753 mmHg 76%
    07:00 +19°C° 0 mm 2 mps 753 mmHg 71%
    08:00 +20°C° 0 mm 2 mps 753 mmHg 66%
    09:00 +23°C° 0 mm 2 mps 753 mmHg 60%
    10:00 +24°C° 0 mm 2 mps 753 mmHg 54%
    11:00 +25°C° 0 mm 3 mps 753 mmHg 52%
    12:00 +25°C° 0 mm 3 mps 753 mmHg 50%
    13:00 +26°C° 0 mm 3 mps 752 mmHg 47%
    14:00 +26°C° 0 mm 3 mps 752 mmHg 48%
    15:00 +26°C° 0 mm 3 mps 752 mmHg 49%
    16:00 +26°C° 0 mm 3 mps 752 mmHg 49%
    17:00 +25°C° 0 mm 2 mps 752 mmHg 55%
    18:00 +24°C° 0 mm 2 mps 752 mmHg 61%
    19:00 +23°C° 0 mm 2 mps 752 mmHg 66%
    20:00 +21°C° 0 mm 2 mps 752 mmHg 70%
    21:00 +19°C° 0 mm 2 mps 752 mmHg 74%
    22:00 +18°C° 0 mm 2 mps 752 mmHg 78%
    23:00 +17°C° 0 mm 2 mps 752 mmHg 80%

    22 July, Sunday

    Time Temperature Precipitation Wind Pressure Humidity
    00:00 +16°C° 0 mm 1 mps 752 mmHg 81%
    01:00 +16°C° 0 mm 1 mps 752 mmHg 83%
    02:00 +15°C° 0 mm 1 mps 752 mmHg 84%
    03:00 +15°C° 0 mm 1 mps 752 mmHg 85%
    04:00 +15°C° 0 mm 1 mps 751 mmHg 86%
    05:00 +16°C° 0 mm 1 mps 752 mmHg 80%
    06:00 +19°C° 0 mm 1 mps 752 mmHg 74%
    07:00 +20°C° 0 mm 1 mps 752 mmHg 69%
    08:00 +22°C° 0 mm 1 mps 752 mmHg 62%
    09:00 +24°C° 0 mm 1 mps 752 mmHg 55%
    10:00 +25°C° 0 mm 1 mps 752 mmHg 48%
    11:00 +26°C° 0 mm 2 mps 752 mmHg 45%
    12:00 +27°C° 0 mm 2 mps 751 mmHg 43%
    13:00 +27°C° 0 mm 2 mps 751 mmHg 40%
    14:00 +28°C° 0 mm 2 mps 751 mmHg 41%
    15:00 +28°C° 0 mm 2 mps 751 mmHg 42%
    16:00 +28°C° 0 mm 2 mps 751 mmHg 42%
    17:00 +27°C° 0 mm 2 mps 751 mmHg 49%
    18:00 +25°C° 0 mm 2 mps 751 mmHg 56%
    19:00 +24°C° 0 mm 2 mps 752 mmHg 62%
    20:00 +23°C° 0 mm 2 mps 752 mmHg 66%
    21:00 +21°C° 0 mm 2 mps 752 mmHg 69%
    22:00 +20°C° 0 mm 2 mps 752 mmHg 72%
    23:00 +20°C° 0 mm 2 mps 753 mmHg 75%

    23 July, Monday

    Time Temperature Precipitation Wind Pressure Humidity
    00:00 +19°C° 0 mm 2 mps 753 mmHg 77%
    01:00 +19°C° 0 mm 2 mps 753 mmHg 80%
    02:00 +18°C° 0 mm 2 mps 753 mmHg 83%
    03:00 +18°C° 0 mm 2 mps 753 mmHg 86%
    04:00 +17°C° 0 mm 2 mps 753 mmHg 89%
    05:00 +18°C° 0.1 mm 2 mps 753 mmHg 85%
    06:00 +19°C° 0.1 mm 2 mps 754 mmHg 82%
    07:00 +20°C° 0.1 mm 3 mps 754 mmHg 78%
    08:00 +21°C° 0.1 mm 3 mps 754 mmHg 72%
    09:00 +22°C° 0.1 mm 3 mps 754 mmHg 65%
    10:00 +25°C° 0.1 mm 3 mps 754 mmHg 58%
    11:00 +25°C° 0 mm 3 mps 754 mmHg 56%
    12:00 +26°C° 0 mm 4 mps 754 mmHg 53%
    13:00 +26°C° 0 mm 4 mps 754 mmHg 50%
    14:00 +26°C° 0 mm 4 mps 754 mmHg 51%
    15:00 +26°C° 0 mm 4 mps 754 mmHg 52%
    16:00 +26°C° 0 mm 4 mps 754 mmHg 53%
    17:00 +25°C° 0 mm 4 mps 754 mmHg 59%
    18:00 +24°C° 0 mm 3 mps 754 mmHg 65%
    19:00 +23°C° 0 mm 2 mps 754 mmHg 71%
    20:00 +20°C° 0 mm 2 mps 754 mmHg 76%
    21:00 +20°C° 0 mm 1 mps 755 mmHg 80%
    22:00 +19°C° 0 mm 1 mps 755 mmHg 85%
    23:00 +18°C° 0 mm 1 mps 755 mmHg 87%

    24 July, Tuesday

    Time Temperature Precipitation Wind Pressure Humidity
    00:00 +18°C° 0 mm 1 mps 755 mmHg 88%
    01:00 +18°C° 0 mm 1 mps 755 mmHg 89%
    02:00 +18°C° 0 mm 1 mps 755 mmHg 90%
    03:00 +18°C° 0 mm 1 mps 755 mmHg 91%
    04:00 +16°C° 0 mm 1 mps 755 mmHg 92%
    05:00 +19°C° 0 mm 1 mps 755 mmHg 87%
    06:00 +19°C° 0 mm 2 mps 755 mmHg 83%
    07:00 +21°C° 0 mm 2 mps 755 mmHg 78%
    08:00 +23°C° 0 mm 2 mps 755 mmHg 74%
    09:00 +24°C° 0 mm 2 mps 755 mmHg 69%
    10:00 +26°C° 0 mm 2 mps 755 mmHg 64%
    11:00 +27°C° 0.1 mm 2 mps 755 mmHg 62%
    12:00 +27°C° 0.1 mm 2 mps 755 mmHg 59%
    13:00 +28°C° 0.1 mm 2 mps 755 mmHg 57%
    14:00 +28°C° 0.2 mm 2 mps 755 mmHg 57%
    15:00 +28°C° 0.2 mm 2 mps 755 mmHg 58%
    16:00 +28°C° 0.2 mm 2 mps 755 mmHg 58%
    17:00 +28°C° 0.2 mm 2 mps 755 mmHg 63%
    18:00 +27°C° 0.2 mm 2 mps 755 mmHg 68%
    19:00 +26°C° 0.2 mm 2 mps 755 mmHg 73%
    20:00 +24°C° 0 mm 2 mps 755 mmHg 77%
    21:00 +23°C° 0 mm 2 mps 756 mmHg 81%
    22:00 +21°C° 0 mm 2 mps 756 mmHg 86%
    23:00 +20°C° 0 mm 2 mps 756 mmHg 87%
    Show more